Weather History for Bentonville, AR

Change the Weather History Date:

Tuesday, December 18, 2012

  Actual Average Record
Temperature  
Mean Temperature 48 °F -  
Max Temperature 60 °F 47 °F 68 °F (1962)
Min Temperature 35 °F 24 °F 4 °F (1979)
Degree Days  
Heating Degree Days 18    
Moisture  
Dew Point 32 °F    
Average Humidity 60    
Maximum Humidity 81    
Minimum Humidity 36    
Precipitation  
Precipitation 0.00 in - - ()
Sea Level Pressure  
Sea Level Pressure 29.78 in    
Wind  
Wind Speed 6 mph (SSW)    
Max Wind Speed 17 mph    
Max Gust Speed 20 mph    
Visibility 10 miles    
Events      
Averages and records for this station are not official NWS values.
T = Trace of Precipitation, MM = Missing Value Source: NWS Daily Summary

Daily Weather History Graph

Daily Weather History Graph

Search for Another Location

Airport:

Trip Planner

Search our weather history database for the weather conditions in past years. The results will help you decide how hot, cold, wet, or windy it might be!

Date:

Astronomy

Dec. 18, 2012 Rise Set
Actual Time 7:23 AM CST 5:04 PM CST
Civil Twilight 6:54 AM CST 5:33 PM CST
Nautical Twilight 6:22 AM CST 6:05 PM CST
Astronomical Twilight 5:50 AM CST 6:36 PM CST
Moon 11:12 AM CST (12/18) 11:20 PM CST (12/18)
Length of Visible Light 10h 38m
Length of Day
9h 41m
Waxing Crescent, 35% of the Moon is Illuminated
Dec 18
Waxing Crescent
Dec 19
First Quarter
Dec 28
Full
Jan 4
Last Quarter
Jan 11
New

Hourly Weather History & Observations

Time (CST) Temp. Windchill Dew Point Humidity Pressure Visibility Wind Dir Wind Speed Gust Speed Precip Events Conditions
12:15 AM 37.4 °F 32.8 °F 30.2 °F 75% 29.78 in 10.0 mi South 5.8 mph - N/A   Clear
12:35 AM 37.4 °F 32.1 °F 30.2 °F 75% 29.78 in 10.0 mi South 6.9 mph - N/A   Clear
12:55 AM 39.2 °F 34.2 °F 30.2 °F 70% 29.78 in 10.0 mi South 6.9 mph - N/A   Clear
1:16 AM 37.4 °F 32.8 °F 30.2 °F 75% 29.78 in 10.0 mi South 5.8 mph - N/A   Clear
1:35 AM 37.4 °F 32.8 °F 30.2 °F 75% 29.77 in 10.0 mi South 5.8 mph - N/A   Clear
1:55 AM 35.6 °F 29.9 °F 30.2 °F 81% 29.76 in 10.0 mi South 6.9 mph - N/A   Clear
2:16 AM 37.4 °F 31.4 °F 30.2 °F 75% 29.77 in 10.0 mi South 8.1 mph - N/A   Clear
2:35 AM 37.4 °F 32.1 °F 30.2 °F 75% 29.76 in 10.0 mi South 6.9 mph - N/A   Clear
2:55 AM 39.2 °F 35.0 °F 30.2 °F 70% 29.77 in 10.0 mi South 5.8 mph - N/A   Clear
3:35 AM 37.4 °F 32.1 °F 30.2 °F 75% 29.76 in 10.0 mi South 6.9 mph - N/A   Clear
3:55 AM 37.4 °F 32.8 °F 30.2 °F 75% 29.75 in 10.0 mi South 5.8 mph - N/A   Clear
4:15 AM 39.2 °F 34.2 °F 30.2 °F 70% 29.74 in 10.0 mi South 6.9 mph - N/A   Clear
4:36 AM 37.4 °F 32.8 °F 30.2 °F 75% 29.74 in 10.0 mi South 5.8 mph - N/A   Clear
4:55 AM 39.2 °F 35.0 °F 30.2 °F 70% 29.74 in 10.0 mi South 5.8 mph - N/A   Clear
5:15 AM 39.2 °F 34.2 °F 30.2 °F 70% 29.74 in 10.0 mi South 6.9 mph - N/A   Clear
6:36 AM 39.2 °F 34.2 °F 30.2 °F 70% 29.74 in 10.0 mi South 6.9 mph - N/A   Clear
6:55 AM 39.2 °F 33.6 °F 30.2 °F 70% 29.75 in 10.0 mi South 8.1 mph - N/A   Clear
7:15 AM 39.2 °F 35.0 °F 30.2 °F 70% 29.74 in 10.0 mi South 5.8 mph - N/A   Clear
7:35 AM 39.2 °F 33.6 °F 30.2 °F 70% 29.74 in 10.0 mi South 8.1 mph - N/A   Clear
7:56 AM 42.8 °F 38.0 °F 32.0 °F 66% 29.75 in 10.0 mi South 8.1 mph - N/A   Clear
8:15 AM 42.8 °F 38.0 °F 33.8 °F 70% 29.74 in 10.0 mi South 8.1 mph - N/A   Clear
8:35 AM 44.6 °F 41.4 °F 33.8 °F 66% 29.75 in 10.0 mi South 5.8 mph - N/A   Clear
8:55 AM 46.4 °F 42.4 °F 33.8 °F 62% 29.75 in 10.0 mi South 8.1 mph - N/A   Clear
9:15 AM 48.2 °F - 33.8 °F 58% 29.75 in 10.0 mi South 9.2 mph - N/A   Clear
9:35 AM 50.0 °F - 35.6 °F 58% 29.75 in 10.0 mi SSW 11.5 mph 16.1 mph N/A   Clear
9:55 AM 51.8 °F - 35.6 °F 54% 29.76 in 10.0 mi SSW 11.5 mph - N/A   Clear
10:35 AM 55.4 °F - 33.8 °F 44% 29.77 in 10.0 mi SSW 11.5 mph 19.6 mph N/A   Clear
11:35 AM 59.0 °F - 33.8 °F 39% 29.77 in 10.0 mi WSW 17.3 mph - N/A   Clear
11:55 AM 59.0 °F - 32.0 °F 36% 29.76 in 10.0 mi WSW 15.0 mph - N/A   Clear
12:15 PM 57.2 °F - 32.0 °F 38% 29.76 in 10.0 mi SW 11.5 mph - N/A   Clear
12:36 PM 59.0 °F - 33.8 °F 39% 29.76 in 10.0 mi West 12.7 mph 16.1 mph N/A   Clear
12:55 PM 59.0 °F - 33.8 °F 39% 29.76 in 10.0 mi West 11.5 mph - N/A   Clear
1:15 PM 59.0 °F - 33.8 °F 39% 29.75 in 10.0 mi WSW 9.2 mph - N/A   Clear
1:55 PM 60.8 °F - 33.8 °F 36% 29.75 in 10.0 mi West 8.1 mph - N/A   Clear
2:15 PM 60.8 °F - 33.8 °F 36% 29.75 in 10.0 mi West 9.2 mph - N/A   Clear
2:35 PM 60.8 °F - 33.8 °F 36% 29.75 in 10.0 mi West 8.1 mph - N/A   Clear
2:55 PM 60.8 °F - 33.8 °F 36% 29.76 in 10.0 mi WSW 6.9 mph - N/A   Clear
3:15 PM 60.8 °F - 33.8 °F 36% 29.76 in 10.0 mi West 5.8 mph - N/A   Clear
3:35 PM 60.8 °F - 33.8 °F 36% 29.76 in 10.0 mi West 5.8 mph - N/A   Clear
3:56 PM 60.8 °F - 33.8 °F 36% 29.77 in 10.0 mi WNW 4.6 mph - N/A   Clear
4:15 PM 59.0 °F - 33.8 °F 39% 29.77 in 9.0 mi WNW 3.5 mph - N/A   Clear
4:35 PM 57.2 °F - 33.8 °F 41% 29.77 in 10.0 mi Calm Calm - N/A   Clear
4:56 PM 55.4 °F - 33.8 °F 44% 29.78 in 10.0 mi NW 3.5 mph - N/A   Clear
5:15 PM 51.8 °F - 33.8 °F 50% 29.79 in 10.0 mi Calm Calm - N/A   Clear
5:35 PM 48.2 °F - 33.8 °F 58% 29.79 in 10.0 mi Calm Calm - N/A   Clear
6:15 PM 48.2 °F - 32.0 °F 54% 29.80 in 10.0 mi Calm Calm - N/A   Clear
6:35 PM 44.6 °F - 32.0 °F 61% 29.80 in 10.0 mi Calm Calm - N/A   Clear
6:55 PM 44.6 °F - 35.6 °F 71% 29.81 in 10.0 mi Calm Calm - N/A   Clear
7:16 PM 42.8 °F - 33.8 °F 70% 29.82 in 10.0 mi Calm Calm - N/A   Clear
7:35 PM 44.6 °F - 33.8 °F 66% 29.82 in 10.0 mi Calm Calm - N/A   Clear
7:55 PM 42.8 °F 41.1 °F 33.8 °F 70% 29.83 in 10.0 mi North 3.5 mph - N/A   Clear
8:35 PM 42.8 °F 41.1 °F 32.0 °F 66% 29.83 in 10.0 mi NNE 3.5 mph - N/A   Clear
8:55 PM 44.6 °F 42.2 °F 33.8 °F 66% 29.83 in 10.0 mi NNE 4.6 mph - N/A   Clear
9:15 PM 44.6 °F 43.1 °F 33.8 °F 66% 29.83 in 10.0 mi ENE 3.5 mph - N/A   Clear
9:35 PM 46.4 °F 44.3 °F 33.8 °F 62% 29.83 in 10.0 mi ENE 4.6 mph - N/A   Clear
9:55 PM 42.8 °F - 32.0 °F 66% 29.83 in 10.0 mi Calm Calm - N/A   Clear
10:15 PM 44.6 °F 40.2 °F 32.0 °F 61% 29.82 in 10.0 mi East 8.1 mph - N/A   Clear
10:55 PM 42.8 °F 41.1 °F 30.2 °F 61% 29.83 in 10.0 mi ESE 3.5 mph - N/A   Clear
11:15 PM 39.2 °F - 30.2 °F 70% 29.83 in 10.0 mi Calm Calm - N/A   Clear
11:35 PM 39.2 °F - 32.0 °F 75% 29.83 in 10.0 mi Calm Calm - N/A   Clear
11:55 PM 37.4 °F - 30.2 °F 75% 29.83 in 10.0 mi Calm Calm - N/A   Clear